Location: Bennemühlen
(52.5740°N, 9.7135°E)
Time: 16:01:37
(UTC+00:00)

Tiros 1 despin weight - Pass Details

Date: 17 February 2026
Orbit: 556 x 593 km, 48.2° (Epoch: 11 March)

Event Time Altitude Azimuth Distance (km) Brightness Sun altitude
Rises 13:47:17 0° 190° (S) 2,732 ? 19.6°
Reaches altitude 10° 13:51:49 10° 145° (SE) 1,836 ? 19.2°
Maximum altitude 13:52:11 10° 140° (SE) 1,830 ? 19.2°
Drops below altitude 10° 13:52:34 10° 135° (SE) 1,836 ? 19.1°
Sets 13:57:06 0° 90° (E) 2,734 ? 18.7°
